Location: College Park
(38.9810°N, 76.9370°W)
Time: 18:12:33
(UTC-04:00)

Envisat - Pass Details

Date: 11 March 2018
Orbit: 764 x 766 km, 98.2° (Epoch: 19 June)

Event Time Altitude Azimuth Distance (km) Brightness Sun altitude
Rises 20:23:49 0° 160° (SSE) 3,214 6.0 -15.0°
Reaches altitude 10° 20:26:07 10° 158° (SSE) 2,293 5.2 -15.4°
Maximum altitude 20:31:08 72° 75° (ENE) 805 2.9 -16.4°
Drops below altitude 10° 20:36:12 10° 352° (N) 2,308 5.7 -17.4°
Sets 20:38:31 0° 350° (N) 3,239 6.5 -17.8°
